Florence, SC

7:58 AM EDT on March 26, 2017 (GMT -0400)
Florence Regional

Weather History for KFLO - January, 2014

Change the Weather History Date:

Sunday, January 26, 2014

  Actual Average Record
Temperature  
Mean Temperature 42 °F 46 °F  
Max Temperature 56 °F 56 °F 81 °F (1950)
Min Temperature 28 °F 35 °F 20 °F (1985)
Degree Days  
Heating Degree Days 23 20  
Month to date heating degree days 598 527  
Since 1 July heating degree days 1510 1506  
Cooling Degree Days 0 0  
Month to date cooling degree days 0 0  
Year to date cooling degree days 0 0  
Moisture  
Dew Point 22 °F    
Average Humidity 44    
Maximum Humidity 63    
Minimum Humidity 24    
Precipitation  
Precipitation 0.00 in 0.10 in 1.09 in (1966)
Month to date precipitation 2.01 2.72  
Year to date precipitation 2.01 2.72  
Sea Level Pressure  
Sea Level Pressure 29.95 in    
Wind  
Wind Speed 8 mph (SW)    
Max Wind Speed 17 mph    
Max Gust Speed 23 mph    
Visibility 10 miles    
Events      
T = Trace of Precipitation, MM = Missing Value Source: NWS Daily Summary

Daily Weather History Graph

Daily Weather History Graph

Search for Another Location

Airport or City:

Trip Planner

Search our weather history database for the weather conditions in past years. The results will help you decide how hot, cold, wet, or windy it might be!

Date:

Astronomy

Jan. 26, 2014 Rise Set
Actual Time 7:20 AM EST 5:43 PM EST
Civil Twilight 6:53 AM EST 6:09 PM EST
Nautical Twilight 6:23 AM EST 6:40 PM EST
Astronomical Twilight 5:53 AM EST 7:09 PM EST
Moon 2:54 AM EST 1:32 PM EST
Length of Visible Light 11h 16m
Length of Day
10h 23m
Waning Crescent, 24% of the Moon is Illuminated
Jan 26
Waning Crescent
Jan 30
New
Feb 6
First Quarter
Feb 14
Full
Feb 22
Last Quarter

Hourly Weather History & Observations

Time (EST) Temp. Windchill Dew Point Humidity Pressure Visibility Wind Dir Wind Speed Gust Speed Precip Events Conditions
12:53 AM 39.0 °F 33.4 °F 19.0 °F 45% 29.90 in 10.0 mi WSW 8.1 mph - N/A   Clear
1:53 AM 39.9 °F 33.9 °F 18.0 °F 41% 29.92 in 10.0 mi WSW 9.2 mph - N/A   Clear
2:53 AM 39.9 °F 33.9 °F 18.0 °F 41% 29.92 in 10.0 mi WSW 9.2 mph - N/A   Clear
3:53 AM 36.0 °F 30.3 °F 18.0 °F 48% 29.94 in 10.0 mi SW 6.9 mph - N/A   Clear
4:53 AM 34.0 °F 28.8 °F 18.0 °F 52% 29.95 in 10.0 mi WSW 5.8 mph - N/A   Clear
5:53 AM 33.1 °F 27.7 °F 18.0 °F 54% 29.96 in 10.0 mi WSW 5.8 mph - N/A   Clear
6:53 AM 28.9 °F - 18.0 °F 64% 29.98 in 10.0 mi Calm Calm - N/A   Clear
7:53 AM 30.9 °F 27.5 °F 19.0 °F 61% 29.99 in 10.0 mi WSW 3.5 mph - N/A   Clear
8:53 AM 37.9 °F 33.5 °F 19.9 °F 48% 30.01 in 10.0 mi WSW 5.8 mph - N/A   Clear
9:53 AM 43.0 °F 39.5 °F 21.0 °F 42% 30.01 in 10.0 mi WSW 5.8 mph - N/A   Clear
10:53 AM 46.9 °F - 21.9 °F 37% 30.01 in 10.0 mi WSW 8.1 mph - N/A   Clear
11:53 AM 51.1 °F - 21.0 °F 31% 29.99 in 10.0 mi SW 10.4 mph - N/A   Clear
12:53 PM 53.1 °F - 21.9 °F 30% 29.95 in 10.0 mi SW 10.4 mph - N/A   Clear
1:53 PM 55.0 °F - 21.9 °F 28% 29.91 in 10.0 mi SSW 12.7 mph 17.3 mph N/A   Clear
2:53 PM 55.0 °F - 19.9 °F 25% 29.90 in 10.0 mi SW 13.8 mph 21.9 mph N/A   Clear
3:53 PM 54.0 °F - 23.0 °F 30% 29.90 in 10.0 mi SSW 15.0 mph - N/A   Clear
4:53 PM 54.0 °F - 25.0 °F 33% 29.91 in 10.0 mi SW 12.7 mph - N/A   Clear
5:53 PM 50.0 °F - 26.1 °F 39% 29.92 in 10.0 mi SSW 6.9 mph - N/A   Clear
6:53 PM 46.9 °F - 27.0 °F 46% 29.93 in 10.0 mi SSW 4.6 mph - N/A   Clear
7:53 PM 45.0 °F 41.8 °F 27.0 °F 49% 29.94 in 10.0 mi SSW 5.8 mph - N/A   Clear
8:53 PM 46.0 °F 43.1 °F 28.0 °F 50% 29.94 in 10.0 mi SSW 5.8 mph - N/A   Clear
9:53 PM 45.0 °F 41.8 °F 28.9 °F 53% 29.94 in 10.0 mi SSW 5.8 mph - N/A   Clear
10:53 PM 44.1 °F 40.1 °F 28.9 °F 55% 29.95 in 10.0 mi SSW 6.9 mph - N/A   Clear
11:53 PM 45.0 °F 40.6 °F 28.9 °F 53% 29.94 in 10.0 mi SSW 8.1 mph - N/A   Clear